contact:dominique.lefevre@mio.osupytheas.fr, maurice.libes@osupytheas.fr, didier.mallarino@osupytheas.fr
Project:EMSO http://www.emso-fr.org/EMSO-France
Depth: 2436.0 m
Title:EMSO Ligure Ouest : Data MII capteur AQUADOPP
Date,Latitude,Longitude,X_East,Y_North,Z_Up,Amplitude_X,Amplitude_Y,Amplitude_Z,Batterie,SoundSpeed,Heading,Pitch,Roll,Pressure,TIS,Speed,Direction
, degrees North, degrees East, m.s-1, m.s-1,m.s-1, 1, 1, 1, Volt, m.s-1, degree, degree, degree, dbar, degree_C, m.s-1, degree
2022-03-16T00:04:03,42.805,6.029,0.034,-0.028,0.007,107.0,106.0,103.0,13.4,1505.2,325.2,-0.8,1.8,2470.37,13.28,0.044,129.5
2022-03-16T00:07:03,42.805,6.029,0.018,-0.002,-0.01,106.0,106.0,103.0,13.4,1505.2,329.0,-0.8,1.8,2470.406,13.28,0.018,96.3
2022-03-16T00:10:03,42.805,6.029,0.04,-0.026,0.015,106.0,106.0,103.0,13.4,1505.2,325.4,-0.7,1.8,2470.396,13.28,0.047,123.0
2022-03-16T00:13:03,42.805,6.029,0.03,-0.01,-0.007,106.0,105.0,103.0,13.4,1505.2,325.4,-0.8,1.8,2470.422,13.28,0.031,108.4
2022-03-16T00:16:03,42.805,6.029,0.03,-0.018,0.012,106.0,105.0,102.0,13.4,1505.2,327.9,-0.7,1.8,2470.433,13.29,0.034,121.0
2022-03-16T00:19:03,42.805,6.029,0.036,-0.026,0.0,106.0,105.0,103.0,13.4,1505.2,327.6,-0.8,1.8,2470.403,13.29,0.044,125.8
2022-03-16T00:22:03,42.805,6.029,0.03,-0.02,-0.002,106.0,105.0,103.0,13.4,1505.2,323.8,-0.8,1.9,2470.43,13.29,0.036,123.7
2022-03-16T00:25:03,42.805,6.029,0.031,-0.02,0.029,105.0,106.0,103.0,13.4,1505.2,331.3,-0.8,1.8,2470.413,13.29,0.036,122.8
2022-03-16T00:28:03,42.805,6.029,0.02,-0.019,-0.002,106.0,106.0,104.0,13.4,1505.2,323.0,-0.8,1.8,2470.423,13.29,0.027,133.5
2022-03-16T00:31:03,42.805,6.029,0.011,-0.032,-0.027,106.0,105.0,103.0,13.4,1505.2,329.3,-0.8,1.8,2470.414,13.29,0.033,161.0
2022-03-16T00:34:03,42.805,6.029,0.021,-0.002,-0.019,108.0,105.0,103.0,13.4,1505.2,329.7,-0.8,1.8,2470.42,13.29,0.021,95.4
2022-03-16T00:37:03,42.805,6.029,0.032,-0.022,0.029,105.0,106.0,104.0,13.4,1505.2,329.5,-0.8,1.9,2470.452,13.29,0.038,124.5
2022-03-16T00:40:03,42.805,6.029,0.017,-0.025,-0.035,106.0,107.0,102.0,13.4,1505.2,325.3,-0.7,1.8,2470.701,13.29,0.03,145.8
2022-03-16T00:43:03,42.805,6.029,0.023,-0.032,0.002,106.0,106.0,103.0,13.4,1505.2,326.8,-0.7,1.8,2470.996,13.29,0.039,144.3
2022-03-16T00:46:03,42.805,6.029,0.011,-0.026,-0.031,105.0,106.0,103.0,13.4,1505.2,331.6,-0.7,1.8,2471.287,13.29,0.028,157.1
2022-03-16T00:49:03,42.805,6.029,0.021,-0.016,-0.009,106.0,106.0,104.0,13.3,1505.2,331.9,-0.7,1.8,2471.313,13.29,0.026,127.3
2022-03-16T00:52:03,42.805,6.029,0.001,0.003,-0.023,106.0,106.0,103.0,13.4,1505.2,324.4,-0.7,1.8,2471.191,13.29,0.003,18.4
2022-03-16T00:55:03,42.805,6.029,0.035,-0.005,0.007,105.0,106.0,103.0,13.4,1505.2,322.7,-0.8,1.8,2471.204,13.29,0.035,98.1
2022-03-16T00:58:03,42.805,6.029,0.006,-0.015,-0.045,105.0,106.0,104.0,13.3,1505.2,331.6,-0.8,1.8,2471.01,13.29,0.016,158.2
2022-03-16T01:04:03,42.805,6.029,0.009,-0.034,-0.002,106.0,107.0,104.0,13.3,1505.2,325.3,-0.8,1.8,2470.25,13.28,0.035,165.2
2022-03-16T01:07:03,42.805,6.029,-0.008,-0.019,-0.005,106.0,106.0,104.0,13.4,1505.2,322.7,-0.8,1.8,2470.309,13.28,0.02,202.8
2022-03-16T01:10:03,42.805,6.029,0.013,-0.025,-0.063,106.0,106.0,103.0,13.4,1505.2,326.4,-0.8,1.8,2470.277,13.28,0.028,152.5
2022-03-16T01:13:03,42.805,6.029,0.0,-0.027,-0.017,105.0,105.0,103.0,13.4,1505.2,327.0,-0.8,1.9,2470.371,13.29,0.026,180.0
2022-03-16T01:16:03,42.805,6.029,0.021,-0.014,0.024,105.0,104.0,103.0,13.4,1505.2,324.6,-0.7,1.9,2470.343,13.29,0.025,123.7
2022-03-16T01:19:03,42.805,6.029,0.016,-0.02,0.0,106.0,104.0,104.0,13.3,1505.2,327.6,-0.8,1.8,2470.387,13.29,0.025,141.3
2022-03-16T01:22:03,42.805,6.029,0.025,0.001,-0.009,106.0,104.0,103.0,13.4,1505.2,331.6,-0.8,1.8,2470.374,13.29,0.025,87.7
2022-03-16T01:25:03,42.805,6.029,0.018,-0.012,0.012,105.0,106.0,104.0,13.4,1505.2,325.9,-0.7,1.8,2470.434,13.29,0.021,123.7
2022-03-16T01:28:03,42.805,6.029,0.023,-0.014,-0.009,106.0,106.0,102.0,13.4,1505.2,322.5,-0.8,1.8,2470.45,13.29,0.026,121.3
2022-03-16T01:31:03,42.805,6.029,0.023,-0.013,-0.009,107.0,105.0,104.0,13.4,1505.2,329.4,-0.7,1.8,2470.568,13.29,0.026,119.5
2022-03-16T01:34:03,42.805,6.029,0.026,-0.031,0.0,106.0,105.0,103.0,13.3,1505.2,325.1,-0.7,1.8,2470.569,13.29,0.04,140.0
2022-03-16T01:37:03,42.805,6.029,0.025,-0.022,-0.018,105.0,106.0,103.0,13.3,1505.2,324.6,-0.7,1.8,2470.464,13.29,0.033,131.3
2022-03-16T01:40:03,42.805,6.029,0.013,-0.028,-0.014,106.0,105.0,103.0,13.3,1505.2,325.1,-0.7,1.8,2470.433,13.29,0.03,155.1
2022-03-16T01:43:03,42.805,6.029,0.026,-0.014,0.005,105.0,105.0,103.0,13.3,1505.2,326.3,-0.7,1.8,2470.43,13.29,0.029,118.3
2022-03-16T01:46:03,42.805,6.029,0.007,-0.02,-0.003,106.0,105.0,103.0,13.3,1505.2,324.5,-0.7,1.8,2470.388,13.29,0.021,160.7
2022-03-16T01:49:03,42.805,6.029,0.006,-0.017,-0.01,105.0,106.0,103.0,13.4,1505.2,324.0,-0.8,1.8,2470.416,13.29,0.018,160.6
2022-03-16T01:52:03,42.805,6.029,-0.006,-0.016,-0.016,105.0,106.0,104.0,13.4,1505.2,323.4,-0.8,1.8,2470.531,13.29,0.017,200.6
2022-03-16T01:55:03,42.805,6.029,-0.005,-0.009,-0.005,107.0,106.0,103.0,13.4,1505.2,329.0,-0.7,1.8,2470.586,13.29,0.01,209.1
2022-03-16T01:58:03,42.805,6.029,-0.008,-0.011,-0.009,106.0,106.0,103.0,13.3,1505.2,330.8,-0.7,1.8,2470.535,13.29,0.013,216.0
2022-03-16T02:04:03,42.805,6.029,-0.006,-0.02,-0.022,105.0,107.0,103.0,13.3,1505.2,329.0,-0.7,1.8,2470.381,13.28,0.02,196.7
2022-03-16T02:07:03,42.805,6.029,0.004,-0.015,-0.008,105.0,105.0,102.0,13.4,1505.2,325.9,-0.7,1.8,2470.453,13.28,0.015,165.1
2022-03-16T02:10:03,42.805,6.029,0.016,0.005,0.02,105.0,104.0,104.0,13.4,1505.2,332.1,-0.8,1.8,2470.457,13.29,0.016,72.6
2022-03-16T02:13:03,42.805,6.029,0.003,-0.005,-0.039,105.0,107.0,103.0,13.4,1505.2,324.1,-0.7,1.8,2470.493,13.29,0.005,149.0
2022-03-16T02:16:03,42.805,6.029,0.008,-0.021,0.003,107.0,106.0,105.0,13.4,1505.2,322.3,-0.8,1.8,2470.476,13.29,0.022,159.1
2022-03-16T02:19:03,42.805,6.029,0.014,-0.002,-0.01,107.0,104.0,103.0,13.3,1505.2,328.7,-0.7,1.8,2470.492,13.29,0.014,98.1
2022-03-16T02:22:03,42.805,6.029,0.033,-0.025,-0.006,107.0,106.0,104.0,13.4,1505.2,324.7,-0.8,1.8,2470.507,13.29,0.041,127.1
2022-03-16T02:25:03,42.805,6.029,0.006,-0.021,-0.015,105.0,105.0,103.0,13.4,1505.2,325.3,-0.7,1.8,2470.518,13.29,0.021,164.1
2022-03-16T02:28:03,42.805,6.029,0.031,-0.021,-0.017,106.0,105.0,103.0,13.4,1505.2,324.1,-0.8,1.8,2470.578,13.29,0.037,124.1
2022-03-16T02:31:03,42.805,6.029,0.022,-0.01,0.0,105.0,105.0,104.0,13.4,1505.2,329.5,-0.8,1.8,2470.551,13.29,0.024,114.4
2022-03-16T02:34:03,42.805,6.029,0.023,-0.023,-0.008,107.0,105.0,103.0,13.4,1505.2,327.1,-0.8,1.8,2470.533,13.29,0.032,135.0
2022-03-16T02:37:03,42.805,6.029,0.015,-0.032,-0.013,105.0,105.0,103.0,13.4,1505.2,330.2,-0.7,1.8,2470.582,13.29,0.035,154.9
2022-03-16T02:40:03,42.805,6.029,-0.009,-0.018,0.0,107.0,105.0,103.0,13.4,1505.2,329.5,-0.7,1.8,2470.562,13.29,0.02,206.6
2022-03-16T02:43:03,42.805,6.029,0.013,-0.008,-0.007,106.0,106.0,103.0,13.4,1505.2,327.0,-0.8,1.8,2470.592,13.29,0.015,121.6
2022-03-16T02:46:03,42.805,6.029,0.013,0.0,-0.013,106.0,107.0,104.0,13.4,1505.2,330.2,-0.8,1.8,2470.623,13.29,0.013,90.0
2022-03-16T02:49:03,42.805,6.029,0.016,-0.012,0.015,105.0,105.0,104.0,13.4,1505.2,323.9,-0.8,1.8,2470.594,13.29,0.02,126.9
2022-03-16T02:52:03,42.805,6.029,0.01,-0.013,-0.031,105.0,106.0,102.0,13.4,1505.2,332.6,-0.7,1.9,2470.606,13.29,0.016,142.4
2022-03-16T02:55:03,42.805,6.029,0.013,-0.007,-0.003,106.0,106.0,103.0,13.3,1505.2,327.6,-0.7,1.8,2470.578,13.29,0.014,118.3
2022-03-16T02:58:03,42.805,6.029,-0.01,-0.007,-0.003,105.0,106.0,104.0,13.3,1505.2,332.0,-0.7,1.8,2470.626,13.29,0.012,235.0
2022-03-16T03:04:03,42.805,6.029,0.02,0.0,-0.031,105.0,105.0,104.0,13.3,1505.2,328.1,-0.8,1.8,2470.607,13.28,0.02,90.0
2022-03-16T03:07:03,42.805,6.029,0.019,-0.03,-0.022,106.0,104.0,103.0,13.3,1505.2,327.6,-0.8,1.8,2470.62,13.29,0.035,147.7
2022-03-16T03:10:03,42.805,6.029,0.01,-0.005,0.006,106.0,106.0,103.0,13.4,1505.2,325.4,-0.8,1.8,2470.642,13.29,0.011,116.6
2022-03-16T03:13:03,42.805,6.029,0.005,-0.011,-0.001,105.0,105.0,103.0,13.4,1505.2,329.8,-0.7,1.8,2470.603,13.29,0.012,155.6
2022-03-16T03:16:03,42.805,6.029,0.0,-0.003,-0.005,106.0,105.0,102.0,13.4,1505.2,322.7,-0.8,1.8,2470.624,13.29,0.003,180.0
2022-03-16T03:19:03,42.805,6.029,0.009,-0.008,-0.009,104.0,107.0,103.0,13.4,1505.2,330.6,-0.7,1.8,2470.639,13.29,0.012,131.6
2022-03-16T03:22:03,42.805,6.029,-0.007,-0.016,-0.009,105.0,106.0,104.0,13.4,1505.2,331.2,-0.7,1.8,2470.649,13.29,0.017,203.6
2022-03-16T03:25:03,42.805,6.029,0.006,-0.02,-0.004,108.0,107.0,104.0,13.4,1505.2,328.9,-0.8,1.8,2470.64,13.29,0.02,163.3
2022-03-16T03:28:03,42.805,6.029,0.025,-0.017,-0.007,107.0,105.0,103.0,13.4,1505.2,326.1,-0.8,1.8,2470.635,13.29,0.03,124.2
2022-03-16T03:31:03,42.805,6.029,-0.009,-0.006,-0.009,107.0,105.0,103.0,13.4,1505.2,325.1,-0.8,1.8,2470.665,13.29,0.01,236.3
2022-03-16T03:34:03,42.805,6.029,-0.001,-0.018,-0.008,105.0,106.0,104.0,13.4,1505.2,322.3,-0.8,1.9,2470.665,13.29,0.018,183.2
2022-03-16T03:37:03,42.805,6.029,0.006,-0.014,0.0,106.0,105.0,103.0,13.4,1505.2,329.8,-0.8,1.8,2470.668,13.29,0.015,156.8
2022-03-16T03:40:03,42.805,6.029,0.017,-0.028,0.011,106.0,105.0,103.0,13.3,1505.2,331.4,-0.8,1.8,2470.683,13.29,0.032,148.7
2022-03-16T03:43:03,42.805,6.029,0.019,-0.003,-0.022,105.0,104.0,103.0,13.4,1505.2,326.9,-0.8,1.8,2470.68,13.29,0.019,99.0
2022-03-16T03:46:03,42.805,6.029,0.005,-0.017,-0.013,104.0,106.0,103.0,13.3,1505.2,324.9,-0.7,1.8,2470.672,13.29,0.017,163.6
2022-03-16T03:49:03,42.805,6.029,0.012,0.0,0.002,106.0,107.0,102.0,13.4,1505.2,332.7,-0.8,1.8,2470.671,13.29,0.012,90.0
2022-03-16T03:52:03,42.805,6.029,0.0,-0.001,0.004,105.0,104.0,104.0,13.4,1505.2,327.1,-0.8,1.8,2470.663,13.29,0.001,180.0
2022-03-16T03:55:03,42.805,6.029,0.0,0.004,-0.003,105.0,105.0,104.0,13.4,1505.2,325.3,-0.8,1.8,2470.684,13.29,0.004,0.0
2022-03-16T03:58:03,42.805,6.029,0.008,0.004,0.001,106.0,105.0,103.0,13.4,1505.2,327.0,-0.8,1.8,2470.646,13.29,0.008,63.4
2022-03-16T04:04:03,42.805,6.029,-0.011,-0.004,-0.012,106.0,106.0,103.0,13.4,1505.2,327.5,-0.8,1.8,2470.743,13.28,0.011,250.0
2022-03-16T04:07:03,42.805,6.029,0.01,-0.012,-0.007,105.0,106.0,103.0,13.4,1505.2,327.8,-0.7,1.8,2470.727,13.29,0.015,140.2
2022-03-16T04:10:03,42.805,6.029,0.022,0.008,-0.026,104.0,105.0,104.0,13.3,1505.2,331.3,-0.8,1.8,2470.778,13.29,0.023,70.0
2022-03-16T04:13:03,42.805,6.029,0.01,-0.003,-0.008,104.0,105.0,103.0,13.3,1505.2,331.3,-0.7,1.8,2470.78,13.29,0.01,106.7
2022-03-16T04:16:03,42.805,6.029,-0.004,-0.006,0.003,105.0,105.0,103.0,13.4,1505.2,326.5,-0.8,1.8,2470.764,13.29,0.007,213.7
2022-03-16T04:19:03,42.805,6.029,0.007,-0.004,-0.023,104.0,105.0,103.0,13.3,1505.2,329.5,-0.8,1.8,2470.772,13.29,0.008,119.7
2022-03-16T04:22:03,42.805,6.029,-0.015,0.004,0.011,104.0,105.0,102.0,13.3,1505.2,326.8,-0.8,1.8,2470.75,13.29,0.015,284.9
2022-03-16T04:25:03,42.805,6.029,0.018,0.007,0.028,104.0,104.0,103.0,13.3,1505.2,332.2,-0.7,1.8,2470.774,13.29,0.019,68.8
2022-03-16T04:28:03,42.805,6.029,0.004,-0.012,-0.002,106.0,104.0,103.0,13.4,1505.2,331.7,-0.7,1.8,2470.799,13.29,0.012,161.6
2022-03-16T04:31:03,42.805,6.029,0.0,-0.014,-0.012,105.0,105.0,103.0,13.4,1505.2,325.3,-0.7,1.8,2470.799,13.29,0.014,180.0
2022-03-16T04:34:03,42.805,6.029,0.024,-0.021,-0.004,106.0,104.0,104.0,13.3,1505.2,329.5,-0.7,1.8,2470.813,13.29,0.031,131.2
2022-03-16T04:37:03,42.805,6.029,0.0,0.02,0.005,105.0,104.0,103.0,13.4,1505.2,328.5,-0.8,1.8,2470.771,13.29,0.02,0.0
2022-03-16T04:40:03,42.805,6.029,0.004,0.014,-0.01,104.0,105.0,103.0,13.4,1505.2,324.7,-0.8,1.8,2470.805,13.29,0.014,15.9
2022-03-16T04:43:03,42.805,6.029,0.026,-0.024,-0.011,104.0,105.0,103.0,13.4,1505.2,328.5,-0.7,1.8,2470.787,13.29,0.035,132.7
2022-03-16T04:46:03,42.805,6.029,0.012,0.019,-0.01,107.0,104.0,103.0,13.4,1505.2,324.1,-0.7,1.8,2470.831,13.29,0.022,32.3
2022-03-16T04:49:03,42.805,6.029,0.0,0.001,-0.025,106.0,106.0,103.0,13.4,1505.2,330.0,-0.8,1.9,2470.84,13.29,0.001,0.0
2022-03-16T04:52:03,42.805,6.029,0.012,-0.002,-0.01,105.0,106.0,102.0,13.4,1505.2,329.3,-0.8,1.8,2470.818,13.29,0.012,99.5
2022-03-16T04:55:03,42.805,6.029,0.01,-0.019,-0.019,106.0,106.0,102.0,13.4,1505.2,329.6,-0.8,1.8,2470.813,13.29,0.021,152.2
2022-03-16T04:58:03,42.805,6.029,0.015,-0.021,-0.003,106.0,106.0,102.0,13.4,1505.2,324.6,-0.8,1.8,2470.845,13.29,0.025,144.5
2022-03-16T05:04:03,42.805,6.029,-0.007,0.006,0.004,106.0,105.0,103.0,13.3,1505.2,329.5,-0.7,1.8,2470.882,13.28,0.009,310.6
2022-03-16T05:07:03,42.805,6.029,0.011,0.002,-0.011,105.0,106.0,104.0,13.3,1505.2,331.6,-0.8,1.8,2470.853,13.29,0.011,79.7
2022-03-16T05:10:03,42.805,6.029,0.0,-0.007,0.002,107.0,105.0,103.0,13.4,1505.2,325.8,-0.8,1.8,2470.832,13.29,0.007,180.0
2022-03-16T05:13:03,42.805,6.029,0.002,-0.009,0.0,105.0,104.0,103.0,13.3,1505.2,323.2,-0.8,1.8,2470.855,13.29,0.009,167.5
2022-03-16T05:16:03,42.805,6.029,-0.005,-0.02,0.003,106.0,106.0,103.0,13.3,1505.2,329.7,-0.8,1.8,2470.83,13.29,0.02,194.0
2022-03-16T05:19:03,42.805,6.029,0.012,0.001,-0.023,105.0,105.0,104.0,13.3,1505.2,323.9,-0.8,1.8,2470.791,13.29,0.012,85.2
2022-03-16T05:22:03,42.805,6.029,0.023,0.015,-0.01,106.0,106.0,105.0,13.4,1505.2,326.8,-0.8,1.8,2470.82,13.29,0.027,56.9
2022-03-16T05:25:03,42.805,6.029,0.007,-0.016,-0.012,105.0,107.0,103.0,13.3,1505.2,329.9,-0.8,1.8,2470.809,13.29,0.017,156.4
2022-03-16T05:28:03,42.805,6.029,0.025,0.014,-0.022,106.0,106.0,103.0,13.4,1505.2,327.7,-0.8,1.8,2470.826,13.29,0.028,60.7
2022-03-16T05:31:03,42.805,6.029,-0.004,-0.015,0.013,105.0,106.0,104.0,13.4,1505.2,323.9,-0.8,1.8,2470.819,13.29,0.015,194.9
2022-03-16T05:34:03,42.805,6.029,0.017,-0.004,-0.004,108.0,107.0,104.0,13.3,1505.2,330.2,-0.7,1.8,2470.826,13.29,0.017,103.2
2022-03-16T05:37:03,42.805,6.029,0.003,-0.003,-0.023,106.0,105.0,103.0,13.4,1505.2,328.5,-0.8,1.8,2470.792,13.29,0.004,135.0
2022-03-16T05:40:03,42.805,6.029,-0.002,0.011,-0.021,106.0,105.0,103.0,13.4,1505.2,330.8,-0.7,1.9,2470.753,13.29,0.011,349.7
2022-03-16T05:43:03,42.805,6.029,0.016,-0.012,0.0,106.0,108.0,103.0,13.3,1505.2,327.8,-0.8,1.8,2470.805,13.29,0.02,126.9
2022-03-16T05:46:03,42.805,6.029,0.023,-0.025,-0.028,105.0,105.0,102.0,13.3,1505.2,331.8,-0.8,1.9,2470.817,13.29,0.033,137.4
2022-03-16T05:49:03,42.805,6.029,0.004,-0.016,0.004,104.0,108.0,106.0,13.4,1505.2,325.9,-0.8,1.9,2470.793,13.29,0.016,166.0
2022-03-16T05:52:03,42.805,6.029,0.011,-0.02,0.005,105.0,103.0,103.0,13.4,1505.2,325.2,-0.8,1.8,2470.809,13.29,0.022,151.2
2022-03-16T05:55:03,42.805,6.029,0.001,0.007,-0.033,106.0,105.0,103.0,13.4,1505.2,329.4,-0.8,1.8,2470.791,13.29,0.007,8.1
2022-03-16T05:58:03,42.805,6.029,-0.008,0.002,-0.019,106.0,103.0,103.0,13.4,1505.2,325.1,-0.7,1.8,2470.814,13.29,0.008,284.0
2022-03-16T06:04:03,42.805,6.029,-0.009,0.01,-0.003,106.0,105.0,104.0,13.4,1505.2,325.6,-0.8,1.8,2470.854,13.29,0.013,318.0
2022-03-16T06:07:03,42.805,6.029,0.002,-0.008,0.019,106.0,106.0,103.0,13.4,1505.2,325.3,-0.7,1.8,2470.906,13.29,0.008,166.0
2022-03-16T06:10:03,42.805,6.029,-0.002,-0.008,-0.001,105.0,105.0,103.0,13.4,1505.2,323.5,-0.7,1.8,2470.867,13.29,0.008,194.0
2022-03-16T06:13:03,42.805,6.029,0.005,0.009,-0.016,107.0,104.0,103.0,13.4,1505.2,329.8,-0.7,1.8,2470.876,13.29,0.01,29.1
2022-03-16T06:16:03,42.805,6.029,-0.002,-0.004,-0.022,105.0,105.0,103.0,13.4,1505.2,328.3,-0.8,1.8,2470.893,13.29,0.004,206.6
2022-03-16T06:19:03,42.805,6.029,-0.022,0.002,-0.016,106.0,104.0,102.0,13.4,1505.2,327.8,-0.8,1.8,2470.845,13.29,0.022,275.2
2022-03-16T06:22:03,42.805,6.029,0.0,0.009,-0.009,106.0,106.0,103.0,13.3,1505.2,327.6,-0.8,1.8,2470.878,13.29,0.009,0.0
2022-03-16T06:25:03,42.805,6.029,-0.011,0.009,0.013,107.0,105.0,104.0,13.4,1505.2,329.5,-0.7,1.8,2470.849,13.29,0.014,309.3
2022-03-16T06:28:03,42.805,6.029,-0.001,-0.005,0.003,106.0,105.0,104.0,13.4,1505.2,327.2,-0.7,1.8,2470.847,13.29,0.005,191.3
2022-03-16T06:31:03,42.805,6.029,-0.006,-0.008,-0.006,105.0,105.0,104.0,13.4,1505.2,330.6,-0.7,1.8,2470.856,13.29,0.01,216.9
2022-03-16T06:34:03,42.805,6.029,0.002,0.007,-0.016,106.0,107.0,103.0,13.3,1505.2,330.8,-0.7,1.8,2470.926,13.29,0.007,15.9
2022-03-16T06:37:03,42.805,6.029,-0.016,0.011,0.003,106.0,106.0,103.0,13.4,1505.2,325.6,-0.7,1.8,2470.947,13.29,0.019,304.5
2022-03-16T06:40:03,42.805,6.029,0.004,-0.002,-0.003,106.0,106.0,103.0,13.4,1505.2,325.8,-0.8,1.8,2470.969,13.29,0.004,116.6
2022-03-16T06:43:03,42.805,6.029,-0.004,0.001,-0.001,105.0,105.0,103.0,13.4,1505.2,329.3,-0.8,1.8,2471.152,13.29,0.004,284.0
2022-03-16T06:46:03,42.805,6.029,-0.008,0.016,0.01,105.0,104.0,103.0,13.4,1505.2,328.9,-0.8,1.9,2471.35,13.29,0.017,333.4
2022-03-16T06:49:03,42.805,6.029,-0.009,0.012,-0.012,106.0,105.0,104.0,13.4,1505.2,331.4,-0.7,1.8,2470.705,13.29,0.015,323.1
2022-03-16T06:52:03,42.805,6.029,0.005,0.003,0.001,104.0,106.0,103.0,13.4,1505.2,331.7,-0.8,1.8,2470.9,13.29,0.005,59.0
2022-03-16T06:55:03,42.805,6.029,-0.002,0.004,-0.028,104.0,104.0,104.0,13.4,1505.2,322.5,-0.8,1.8,2471.328,13.29,0.004,333.4
2022-03-16T06:58:03,42.805,6.029,-0.003,-0.004,0.024,105.0,104.0,102.0,13.4,1505.2,326.5,-0.8,1.8,2470.604,13.29,0.005,216.9
2022-03-16T07:04:03,42.805,6.029,0.014,-0.008,-0.018,107.0,104.0,102.0,13.4,1505.2,326.3,-0.7,1.8,2470.55,13.29,0.016,119.7
2022-03-16T07:07:03,42.805,6.029,-0.002,0.009,0.024,105.0,105.0,101.0,13.4,1505.2,325.6,-0.8,1.8,2470.578,13.29,0.009,347.5
2022-03-16T07:10:03,42.805,6.029,0.005,-0.01,-0.025,105.0,105.0,104.0,13.4,1505.2,326.0,-0.8,1.8,2470.84,13.29,0.011,153.4
2022-03-16T07:13:03,42.805,6.029,0.003,-0.011,-0.023,106.0,105.0,104.0,13.4,1505.2,330.8,-0.8,1.8,2470.707,13.29,0.011,164.7
2022-03-16T07:16:03,42.805,6.029,0.001,0.009,-0.007,105.0,105.0,103.0,13.4,1505.2,326.7,-0.8,1.8,2470.794,13.29,0.009,6.3
2022-03-16T07:19:03,42.805,6.029,-0.01,0.004,-0.033,105.0,105.0,104.0,13.4,1505.2,328.9,-0.7,1.8,2471.288,13.29,0.01,291.8
2022-03-16T07:22:03,42.805,6.029,-0.009,0.009,-0.033,105.0,106.0,102.0,13.4,1505.2,327.6,-0.8,1.8,2471.195,13.3,0.012,315.0
2022-03-16T07:25:03,42.805,6.029,-0.006,0.014,-0.045,104.0,104.0,102.0,13.4,1505.2,326.2,-0.8,1.9,2471.186,13.3,0.015,336.8
2022-03-16T07:28:03,42.805,6.029,-0.012,-0.016,-0.002,106.0,105.0,103.0,13.4,1505.2,331.9,-0.7,1.8,2471.242,13.3,0.02,216.9
2022-03-16T07:31:03,42.805,6.029,-0.013,-0.016,-0.025,105.0,105.0,102.0,13.4,1505.2,325.4,-0.7,1.9,2470.747,13.3,0.02,219.1
2022-03-16T07:34:03,42.805,6.029,-0.005,0.004,-0.03,105.0,105.0,103.0,13.3,1505.2,327.2,-0.7,1.8,2470.73,13.3,0.006,308.7
2022-03-16T07:37:03,42.805,6.029,-0.01,-0.013,-0.023,107.0,103.0,103.0,13.3,1505.2,330.9,-0.8,1.8,2470.436,13.3,0.016,217.6
2022-03-16T07:40:03,42.805,6.029,-0.002,-0.007,0.006,105.0,105.0,103.0,13.4,1505.2,332.4,-0.7,1.8,2470.486,13.3,0.007,195.9
2022-03-16T07:43:03,42.805,6.029,-0.009,0.01,0.015,105.0,104.0,104.0,13.4,1505.2,328.7,-0.7,1.8,2471.159,13.3,0.013,318.0
2022-03-16T07:46:03,42.805,6.029,0.009,0.007,0.004,104.0,106.0,103.0,13.4,1505.2,325.6,-0.7,1.8,2471.368,13.3,0.011,52.1
2022-03-16T07:49:03,42.805,6.029,-0.014,0.005,-0.002,106.0,105.0,103.0,13.4,1505.2,324.0,-0.8,1.8,2471.439,13.3,0.014,289.6
2022-03-16T07:52:03,42.805,6.029,0.012,-0.004,-0.007,106.0,106.0,103.0,13.4,1505.2,329.6,-0.8,1.8,2471.355,13.3,0.012,108.4
2022-03-16T07:55:03,42.805,6.029,-0.011,0.01,-0.005,105.0,105.0,102.0,13.4,1505.2,326.3,-0.7,1.8,2471.143,13.3,0.014,312.3
2022-03-16T07:58:03,42.805,6.029,-0.019,0.016,0.017,105.0,103.0,104.0,13.4,1505.2,325.9,-0.7,1.8,2471.01,13.3,0.024,310.1
2022-03-16T08:04:03,42.805,6.029,0.004,-0.006,-0.024,105.0,104.0,103.0,13.4,1505.2,323.6,-0.8,1.8,2470.557,13.29,0.007,146.3
2022-03-16T08:07:03,42.805,6.029,0.014,0.009,0.0,105.0,106.0,102.0,13.4,1505.2,326.6,-0.8,1.8,2470.473,13.29,0.016,57.3
2022-03-16T08:10:03,42.805,6.029,-0.002,-0.004,-0.013,105.0,105.0,103.0,13.4,1505.2,326.7,-0.8,1.8,2470.483,13.3,0.004,206.6
2022-03-16T08:13:03,42.805,6.029,0.017,0.015,-0.022,107.0,105.0,102.0,13.4,1505.2,327.4,-0.8,1.8,2470.577,13.3,0.022,48.6
2022-03-16T08:16:03,42.805,6.029,0.002,0.007,-0.007,105.0,103.0,102.0,13.4,1505.2,328.3,-0.7,1.9,2471.015,13.3,0.007,15.9
2022-03-16T08:19:03,42.805,6.029,0.017,-0.016,-0.017,105.0,105.0,102.0,13.4,1505.2,327.7,-0.8,1.8,2471.411,13.3,0.023,133.3
2022-03-16T08:22:03,42.805,6.029,-0.005,0.001,-0.018,106.0,107.0,104.0,13.4,1505.2,324.5,-0.8,1.9,2471.528,13.3,0.005,281.3
2022-03-16T08:25:03,42.805,6.029,-0.027,-0.005,-0.027,105.0,104.0,102.0,13.3,1505.2,328.0,-0.8,1.8,2471.663,13.3,0.027,259.5
2022-03-16T08:28:03,42.805,6.029,-0.002,0.003,0.018,105.0,106.0,103.0,13.4,1505.2,331.7,-0.7,1.8,2471.729,13.3,0.003,326.3
2022-03-16T08:31:03,42.805,6.029,-0.014,-0.008,-0.019,106.0,105.0,104.0,13.4,1505.2,332.4,-0.7,1.8,2471.633,13.3,0.016,240.3
2022-03-16T08:34:03,42.805,6.029,0.009,-0.005,-0.03,107.0,104.0,103.0,13.3,1505.2,326.4,-0.8,1.8,2471.381,13.3,0.01,119.1
2022-03-16T08:37:03,42.805,6.029,0.008,-0.006,-0.007,105.0,104.0,103.0,13.4,1505.2,328.7,-0.8,1.8,2471.372,13.3,0.01,126.9
2022-03-16T08:40:03,42.805,6.029,-0.024,0.006,-0.003,105.0,105.0,103.0,13.4,1505.2,329.5,-0.7,1.8,2470.835,13.3,0.024,284.0
2022-03-16T08:43:03,42.805,6.029,-0.02,-0.01,-0.017,104.0,105.0,102.0,13.4,1505.2,325.3,-0.8,1.8,2470.792,13.3,0.022,243.4
2022-03-16T08:46:03,42.805,6.029,0.01,0.004,-0.002,104.0,105.0,103.0,13.4,1505.2,322.9,-0.7,1.8,2470.513,13.3,0.01,68.2
2022-03-16T08:49:03,42.805,6.029,-0.025,-0.01,-0.006,105.0,104.0,102.0,13.3,1505.2,323.6,-0.8,1.8,2470.442,13.3,0.026,248.2
2022-03-16T08:52:03,42.805,6.029,0.002,0.015,0.013,104.0,105.0,103.0,13.3,1505.2,325.9,-0.7,1.8,2470.541,13.3,0.015,7.6
2022-03-16T08:55:03,42.805,6.029,-0.016,0.012,0.0,104.0,105.0,103.0,13.3,1505.2,328.1,-0.8,1.9,2470.681,13.3,0.02,306.9
2022-03-16T08:58:03,42.805,6.029,0.0,0.0,-0.017,105.0,106.0,104.0,13.4,1505.2,323.8,-0.8,1.8,2471.165,13.3,0.0,0.0
2022-03-16T09:04:03,42.805,6.029,-0.001,0.004,-0.004,104.0,105.0,102.0,13.4,1505.2,325.7,-0.8,1.8,2472.164,13.29,0.004,346.0
2022-03-16T09:07:03,42.805,6.029,0.0,0.001,0.015,105.0,104.0,103.0,13.4,1505.2,326.2,-0.8,1.8,2472.358,13.29,0.001,0.0
2022-03-16T09:10:03,42.805,6.029,0.012,-0.001,0.001,105.0,104.0,102.0,13.3,1505.2,325.6,-0.8,1.8,2472.309,13.29,0.012,94.8
2022-03-16T09:13:03,42.805,6.029,0.009,-0.015,0.0,106.0,104.0,102.0,13.4,1505.2,327.8,-0.7,1.8,2472.436,13.29,0.017,149.0
2022-03-16T09:16:03,42.805,6.029,-0.018,0.009,-0.026,106.0,104.0,103.0,13.3,1505.2,328.1,-0.8,1.8,2472.687,13.29,0.02,296.6
2022-03-16T09:19:03,42.805,6.029,0.004,0.01,0.0,105.0,103.0,104.0,13.4,1505.2,324.1,-0.7,1.8,2472.684,13.3,0.01,21.8
2022-03-16T09:22:03,42.805,6.029,0.002,-0.01,-0.006,105.0,105.0,103.0,13.4,1505.2,323.8,-0.7,1.8,2472.528,13.3,0.01,168.7
2022-03-16T09:25:03,42.805,6.029,-0.017,0.012,-0.006,105.0,104.0,103.0,13.3,1505.2,331.3,-0.8,1.8,2472.355,13.3,0.02,305.2
2022-03-16T09:28:03,42.805,6.029,-0.01,-0.005,-0.007,105.0,104.0,103.0,13.3,1505.2,329.9,-0.7,1.8,2471.878,13.3,0.011,243.4
2022-03-16T09:31:03,42.805,6.029,-0.019,0.021,-0.013,104.0,106.0,103.0,13.4,1505.2,331.0,-0.8,1.8,2471.331,13.3,0.028,317.9
2022-03-16T09:34:03,42.805,6.029,-0.016,-0.02,-0.021,105.0,104.0,103.0,13.4,1505.2,322.8,-0.8,1.8,2470.755,13.3,0.025,218.7
2022-03-16T09:37:03,42.805,6.029,-0.004,0.015,-0.01,106.0,105.0,102.0,13.3,1505.2,325.6,-0.8,1.9,2470.67,13.29,0.015,345.1
2022-03-16T09:40:03,42.805,6.029,0.002,0.006,-0.017,106.0,105.0,102.0,13.3,1505.2,330.4,-0.7,1.8,2470.6,13.29,0.006,18.4
2022-03-16T09:43:03,42.805,6.029,-0.005,-0.002,-0.001,106.0,106.0,104.0,13.4,1505.2,328.6,-0.7,1.8,2470.981,13.29,0.005,248.2
2022-03-16T09:46:03,42.805,6.029,-0.009,0.009,0.005,106.0,105.0,103.0,13.4,1505.2,324.5,-0.8,1.8,2470.531,13.29,0.012,315.0
2022-03-16T09:49:03,42.805,6.029,-0.015,0.0,-0.025,105.0,104.0,103.0,13.4,1505.2,328.8,-0.8,1.8,2470.612,13.29,0.015,270.0
2022-03-16T09:52:03,42.805,6.029,-0.005,0.012,-0.001,106.0,104.0,103.0,13.4,1505.2,329.0,-0.7,1.9,2470.674,13.29,0.013,337.4
2022-03-16T09:55:03,42.805,6.029,-0.002,-0.004,0.002,105.0,104.0,102.0,13.3,1505.2,327.5,-0.8,1.8,2470.754,13.29,0.004,206.6
2022-03-16T09:58:03,42.805,6.029,-0.008,-0.003,0.005,104.0,104.0,104.0,13.3,1505.2,325.4,-0.7,1.8,2470.89,13.29,0.008,249.4